Gladstone Observation History
Time Wind Speed Temp Pressure Rel. Hum Rain
03/02:00pm NE 7-10 kts n/a 1010.1 hPa n/a 0.0mm
03/01:30pm NE 7-11 kts n/a 1010.4 hPa n/a 0.0mm
03/01:00pm NE 7-11 kts n/a 1010.9 hPa n/a 0.0mm
03/12:30pm ENE 8-12 kts n/a 1011.3 hPa n/a 0.0mm
03/12:00pm ENE 9-12 kts n/a 1011.8 hPa n/a 0.0mm
03/11:30am ENE 7-11 kts n/a 1012.2 hPa n/a 0.0mm
03/11:00am ENE 8-13 kts n/a 1012.6 hPa n/a 0.0mm
03/10:30am ENE 6-10 kts n/a 1012.9 hPa n/a 0.0mm
03/10:00am ENE 7-10 kts n/a 1012.9 hPa n/a 0.0mm
03/09:30am ENE 7-9 kts n/a 1013.3 hPa n/a 0.0mm
03/09:00am E 7-11 kts n/a 1013.2 hPa n/a 0.0mm
03/08:30am ESE 5-8 kts n/a 1013.4 hPa n/a 0.0mm
03/08:00am SSE 5-8 kts n/a 1013.4 hPa n/a 0.0mm
03/07:30am SSE 5-6 kts n/a 1013.1 hPa n/a 0.0mm
03/07:00am SSE 6-10 kts n/a 1012.5 hPa n/a 0.0mm
03/06:30am SSE 7-9 kts n/a 1012.3 hPa n/a 0.0mm
03/06:00am SSE 7-9 kts n/a 1012.0 hPa n/a 0.0mm
03/05:30am SSE 7-9 kts n/a 1011.7 hPa n/a 0.0mm
03/05:00am S 7-8 kts n/a 1011.5 hPa n/a 0.0mm
03/04:30am S 7-9 kts n/a 1011.4 hPa n/a 0.0mm
03/04:00am SSE 6-8 kts n/a 1011.3 hPa n/a 0.0mm
03/03:30am S 7-9 kts n/a 1011.4 hPa n/a 0.0mm
03/03:00am S 6-7 kts n/a 1011.4 hPa n/a 0.0mm
03/02:30am SSE 6-8 kts n/a 1011.6 hPa n/a 0.0mm
03/02:00am SSE 5-7 kts n/a 1011.9 hPa n/a 0.0mm
03/01:30am SSE 6-7 kts n/a 1012.2 hPa n/a 0.0mm
03/01:00am SSE 5-8 kts n/a 1012.4 hPa n/a 0.0mm
03/12:30am SSE 6-8 kts n/a 1012.7 hPa n/a 0.0mm
03/12:00am SSE 6-8 kts n/a 1013.1 hPa n/a 0.0mm
Time Wind Speed Temp Pressure Rel. Hum Rain
02/11:30pm SE 6-8 kts n/a 1013.2 hPa n/a 0.0mm
02/11:00pm SSE 5-8 kts n/a 1013.5 hPa n/a 0.0mm
02/10:30pm E 7-10 kts n/a 1013.6 hPa n/a 0.0mm
02/10:00pm E 7-9 kts n/a 1013.9 hPa n/a 0.0mm
02/09:30pm E 7-8 kts n/a 1014.0 hPa n/a 0.0mm
02/09:00pm E 7-10 kts n/a 1014.0 hPa n/a 0.0mm
02/08:30pm E 7-9 kts n/a 1014.0 hPa n/a 0.0mm
02/08:00pm E 7-10 kts n/a 1013.7 hPa n/a 0.0mm
02/07:30pm E 8-11 kts n/a 1013.6 hPa n/a 0.0mm
02/07:00pm ENE 9-12 kts n/a 1013.3 hPa n/a 0.0mm
02/06:30pm ENE 9-14 kts n/a 1012.9 hPa n/a 0.0mm
02/06:00pm ENE 9-14 kts n/a 1012.9 hPa n/a 0.0mm
02/05:30pm ENE 12-16 kts n/a 1012.6 hPa n/a 0.0mm
02/05:00pm ENE 9-14 kts n/a 1012.6 hPa n/a 0.0mm
02/04:30pm ENE 12-17 kts n/a 1012.5 hPa n/a 0.0mm
02/04:00pm ENE 11-15 kts n/a 1012.5 hPa n/a 0.0mm
02/03:30pm ENE 14-18 kts n/a 1012.2 hPa n/a 0.0mm
02/03:00pm ENE 13-16 kts n/a 1012.5 hPa n/a 0.0mm
02/02:30pm ENE 13-19 kts n/a 1012.6 hPa n/a 0.0mm
02/02:00pm ENE 12-18 kts n/a 1012.6 hPa n/a 0.0mm
02/01:30pm ENE 11-16 kts n/a 1013.1 hPa n/a 0.0mm
02/01:00pm ENE 12-17 kts n/a 1013.2 hPa n/a 0.0mm
02/12:30pm ENE 11-14 kts n/a 1013.5 hPa n/a 0.0mm
02/12:00pm ENE 11-15 kts n/a 1014.3 hPa n/a 0.0mm
02/11:30am E 11-17 kts n/a 1014.8 hPa n/a 0.0mm
02/11:00am E 11-15 kts n/a 1015.0 hPa n/a 0.0mm
02/10:30am ESE 10-15 kts n/a 1015.0 hPa n/a 0.0mm
02/10:00am ESE 9-15 kts n/a 1015.4 hPa n/a 0.0mm
02/09:30am E 8-14 kts n/a 1015.4 hPa n/a 0.0mm
02/09:00am SE 7-10 kts n/a 1015.4 hPa n/a 0.0mm
02/08:30am SSE 7-11 kts n/a 1015.4 hPa n/a 0.0mm
02/08:00am SSE 9-15 kts n/a 1015.2 hPa n/a 0.0mm
02/07:30am SE 9-14 kts n/a 1015.1 hPa n/a 0.0mm
02/07:00am SSE 7-13 kts n/a 1014.9 hPa n/a 0.0mm
02/06:30am SSE 9-13 kts n/a 1014.5 hPa n/a 0.0mm
02/06:00am SSE 10-14 kts n/a 1014.1 hPa n/a 0.0mm
02/05:30am SE 8-12 kts n/a 1013.9 hPa n/a 0.0mm
02/05:00am SE 8-11 kts n/a 1013.7 hPa n/a 0.0mm
02/04:30am SSE 7-12 kts n/a 1013.7 hPa n/a 0.0mm
02/04:00am SSE 9-14 kts n/a 1013.4 hPa n/a 0.0mm
02/03:30am SE 9-12 kts n/a 1013.4 hPa n/a 0.0mm
02/03:00am SE 8-11 kts n/a 1013.3 hPa n/a 0.0mm
02/02:30am SE 8-11 kts n/a 1013.7 hPa n/a 0.0mm
02/02:00am SE 8-12 kts n/a 1014.3 hPa n/a 0.0mm
02/01:30am SSE 8-11 kts n/a 1014.8 hPa n/a 0.0mm
02/01:00am SE 8-11 kts n/a 1015.1 hPa n/a 0.0mm
02/12:30am SE 8-10 kts n/a 1015.2 hPa n/a 0.0mm
02/12:00am SSE 7-11 kts n/a 1015.8 hPa n/a 0.0mm
Time Wind Speed Temp Pressure Rel. Hum Rain
01/11:30pm SSE 6-8 kts n/a 1016.0 hPa n/a 0.0mm
01/11:00pm SSE 5-8 kts n/a 1016.1 hPa n/a 0.0mm
01/10:30pm SE 6-9 kts n/a 1016.4 hPa n/a 0.0mm
01/10:00pm E 5-10 kts n/a 1016.5 hPa n/a 0.0mm
01/09:30pm E 9-12 kts n/a 1016.3 hPa n/a 0.0mm
01/09:00pm E 9-14 kts n/a 1016.0 hPa n/a 0.0mm
01/08:30pm E 10-13 kts n/a 1015.7 hPa n/a 0.0mm
01/08:00pm E 9-12 kts n/a 1015.3 hPa n/a 0.0mm
01/07:30pm E 10-13 kts n/a 1015.2 hPa n/a 0.0mm
01/07:00pm E 9-12 kts n/a 1014.9 hPa n/a 0.0mm
01/06:30pm ENE 9-11 kts n/a 1014.7 hPa n/a 0.0mm
01/06:00pm ENE 8-11 kts n/a 1014.7 hPa n/a 0.0mm
01/05:30pm ENE 10-13 kts n/a 1014.5 hPa n/a 0.0mm
01/05:00pm ENE 10-15 kts n/a 1014.3 hPa n/a 0.0mm
01/04:30pm ENE 12-16 kts n/a 1014.2 hPa n/a 0.0mm
01/04:00pm ENE 11-15 kts n/a 1014.0 hPa n/a 0.0mm
01/03:30pm ENE 9-14 kts n/a 1014.0 hPa n/a 0.0mm
01/03:00pm ENE 12-15 kts n/a 1014.0 hPa n/a 0.0mm
01/02:30pm ENE 10-13 kts n/a 1014.4 hPa n/a 0.0mm
01/02:00pm ENE 12-16 kts n/a 1014.6 hPa n/a 0.0mm
01/01:30pm ENE 11-15 kts n/a 1014.8 hPa n/a 0.0mm
01/01:00pm ENE 10-14 kts n/a 1015.1 hPa n/a 0.0mm
01/12:30pm ENE 10-15 kts n/a 1015.3 hPa n/a 0.0mm
01/12:00pm ENE 10-13 kts n/a 1015.6 hPa n/a 0.0mm
01/11:30am ENE 9-13 kts n/a 1015.9 hPa n/a 0.0mm
01/11:00am ENE 10-13 kts n/a 1016.3 hPa n/a 0.0mm
01/10:30am E 10-16 kts n/a 1016.4 hPa n/a 0.0mm
01/10:00am E 9-13 kts n/a 1016.4 hPa n/a 0.0mm
01/09:30am ESE 11-16 kts n/a 1016.4 hPa n/a 0.0mm
01/09:00am ESE 10-16 kts n/a 1016.3 hPa n/a 0.0mm
01/08:30am SE 7-11 kts n/a 1016.3 hPa n/a 0.0mm
01/08:00am SE 7-11 kts n/a 1016.2 hPa n/a 0.0mm
01/07:30am SE 8-11 kts n/a 1016.1 hPa n/a 0.0mm
01/07:00am SSE 7-10 kts n/a 1015.9 hPa n/a 0.0mm
01/06:30am SSE 7-11 kts n/a 1015.5 hPa n/a 0.0mm
01/06:00am SSE 8-10 kts n/a 1015.3 hPa n/a 0.0mm
01/05:30am SSE 7-10 kts n/a 1015.0 hPa n/a 0.0mm
01/05:00am SSE 8-11 kts n/a 1014.8 hPa n/a 0.0mm
01/04:30am SSE 7-9 kts n/a 1014.4 hPa n/a 0.0mm
01/04:00am SSE 6-9 kts n/a 1014.1 hPa n/a 0.0mm
01/03:30am SSE 6-9 kts n/a 1013.9 hPa n/a 0.0mm
01/03:00am SSE 6-8 kts n/a 1014.1 hPa n/a 0.0mm
01/02:30am SSE 6-8 kts n/a 1014.3 hPa n/a 0.0mm
01/02:00am S 5-7 kts n/a 1014.3 hPa n/a 0.0mm
01/01:30am SSE 6-8 kts n/a 1014.9 hPa n/a 0.0mm
01/01:00am E 3-5 kts n/a 1014.7 hPa n/a 0.0mm
01/12:30am E 5-7 kts n/a 1014.9 hPa n/a 0.0mm
01/12:00am ENE 7-9 kts n/a 1015.0 hPa n/a 0.0mm